#timestamp,LO_Frequency,Hit,StdDev 
1532840415.5,286046998.2,Y
1532840435.4,286046998.9,P
1532840455.2,286046998.8,N
1532840475.0,286046998.4,N
1532840475.9,286046998.4,N
1532840495.8,286046998.4,N
1532840515.6,286046998.2,N
1532840535.5,286046998.3,N
1532840555.3,286046998.8,N
1532840575.1,286046998.4,N
1532840595.9,286046998.9,N
1532840615.7,286046998.5,N
1532840635.5,286046998.8,N
1532840655.4,286046999.1,N
1532840675.2,286046999.6,N
1532840695.0,286046999.4,N
1532840696.0,286046999.4,N
1532840715.8,286046999.1,N
1532840735.6,286046999.3,N
1532840755.5,286046999.1,N
1532840775.3,286046996.8,Y
1532840795.1,286046999.0,P
1532840815.9,286046996.9,P
1532840835.7,286046996.5,P
1532840855.6,286046999.6,N
1532840875.4,286046999.5,N
1532840895.2,286046996.9,N
1532840915.1,286046999.1,N
1532840916.0,286046999.1,N
1532840935.8,286047001.2,N
1532840955.6,286047001.1,N
1532840975.5,286046998.5,N
1532840995.3,286046999.5,N
1532841015.1,286046998.3,N
1532841035.9,286047001.2,N
1532841055.7,286047001.2,N
1532841075.6,286046998.2,N
1532841095.4,286046998.8,N
1532841115.2,286046999.0,N
1532841135.1,286046998.5,N
1532841136.0,286046998.5,N
1532841155.8,286046999.2,N
1532841175.7,286046996.8,N
1532841195.5,286046999.5,N
1532841215.3,286046996.6,N
1532841235.2,286046996.5,N
1532841255.0,286046996.6,N
1532841255.9,286046996.6,N
1532841275.7,286046999.2,N
1532841295.6,286046998.6,N
1532841315.4,286046999.0,N
1532841335.3,286046998.3,N
1532841355.1,286046998.2,N
1532841375.8,286047000.7,N
1532841395.7,286047000.7,N
1532841415.5,286047000.2,N
1532841435.4,286047000.7,N
1532841455.2,286046998.3,N
1532841475.0,286046999.2,N
1532841475.9,286046999.2,N
1532841495.8,286046999.2,N
1532841515.6,286046999.4,N
1532841535.4,286046996.9,N
1532841555.3,286046999.0,N
1532841575.1,286046998.5,N
1532841595.9,286046998.8,N
1532841615.7,286046998.1,N
1532841635.5,286047000.6,N
1532841655.4,286047001.0,N
1532841675.2,286046998.1,N
1532841695.1,286047001.0,N
1532841696.0,286047001.0,N
1532841715.8,286047000.2,N
1532841735.6,286047000.3,N
1532841755.5,286047000.5,N
1532841775.3,286047000.1,N
1532841795.1,286047002.8,N
1532841815.9,286047000.1,N
1532841835.7,286046999.8,N
1532841855.6,286046999.9,N
1532841875.4,286046999.8,N
1532841895.2,286047000.3,N
1532841915.1,286046999.7,N
1532841916.0,286046999.7,N
1532841935.8,286047002.8,N
1532841955.7,286047000.3,N
1532841975.5,286047000.5,N
1532841995.3,286047002.7,N
1532842015.2,286047002.3,N
1532842035.0,286047002.6,N
1532842035.9,286047002.6,N
1532842055.7,286047002.6,N
1532842075.6,286047002.3,N
1532842095.4,286047000.5,N
1532842115.3,286047000.3,N
1532842135.1,286047000.3,N
1532842155.8,286047002.6,N
1532842175.7,286047001.5,N
1532842195.5,286047004.4,Y
1532842215.4,286047002.3,P
1532842235.2,286047001.7,N
1532842255.0,286047002.2,P
1532842255.9,286047002.2,Y
1532842275.8,286047000.0,P
1532842295.6,286047000.3,N
1532842315.4,286047000.7,N
1532842335.3,286047000.0,N
1532842355.1,286047000.3,N
1532842375.9,286047000.3,N
1532842395.7,286046999.7,N
1532842415.5,286047002.5,Y
1532842435.4,286047000.2,P
1532842455.2,286046999.8,N
1532842475.1,286046999.7,N
1532842476.0,286046999.7,N
1532842495.8,286046999.9,N
1532842515.6,286047000.6,N
1532842535.5,286047000.5,N
1532842555.3,286046999.7,N
1532842575.2,286047000.3,N
1532842595.9,286047000.5,N
1532842615.7,286047001.0,N
1532842635.6,286047000.4,N
1532842655.4,286047002.2,Y
1532842675.2,286047002.7,P
1532842695.1,286047002.2,N
1532842696.0,286047002.2,N
1532842715.8,286047000.1,N
1532842735.7,286046999.7,N
1532842755.5,286046999.8,N
1532842775.3,286047002.3,N
1532842795.2,286047002.1,N
1532842815.0,286047001.6,N
1532842815.9,286047001.6,N
1532842835.8,286047004.3,Y
1532842855.6,286047001.6,P
1532842875.4,286047002.6,P
1532842895.3,286047004.4,P
1532842915.1,286047001.8,N
1532842935.9,286047001.7,N
1532842955.7,286047001.7,N
1532842975.5,286047001.3,N
1532842995.4,286047001.7,N
1532843015.2,286047004.4,Y
1532843035.1,286047000.4,P
1532843036.0,286047000.4,N
1532843055.8,286047000.6,N
1532843075.6,286047000.3,N
1532843095.5,286047000.1,N
1532843115.3,286047002.8,Y
1532843135.2,286047001.0,P
1532843155.9,286047001.2,P
1532843175.7,286047001.1,P
1532843195.6,286047000.9,Y
1532843215.4,286046998.1,P
1532843235.2,286047000.7,N
1532843255.1,286047001.2,N
1532843256.0,286047001.2,N
1532843275.8,286047000.9,N
1532843295.7,286047000.9,N
1532843315.5,286047001.0,N
1532843335.3,286046999.9,N
1532843355.2,286047001.0,N
1532843375.0,286047000.8,N
1532843375.9,286047000.8,N
1532843395.8,286047000.5,N
1532843415.6,286047000.9,N
1532843435.4,286046999.8,N
1532843455.3,286046999.7,N
1532843475.1,286047002.8,Y
1532843495.8,286046999.7,P
1532843515.7,286046999.7,N
1532843535.5,286047000.4,N
1532843555.4,286047000.0,N
1532843575.2,286047000.0,N
1532843595.0,286047000.5,N
1532843595.9,286047000.5,N
1532843615.8,286046999.7,N
1532843635.6,286047000.4,N
1532843655.4,286046999.8,N
1532843675.3,286046999.7,N
1532843695.1,286047000.0,N
1532843715.9,286047000.4,N
1532843735.7,286047000.4,N
1532843755.5,286047000.0,N
1532843775.4,286046999.9,N
1532843795.2,286047000.5,N
1532843815.1,286047000.0,N
1532843816.0,286047000.0,N
1532843835.8,286047000.6,N
1532843855.6,286047000.2,N
1532843875.5,286047000.0,N
1532843895.3,286047000.4,N
1532843915.2,286047002.8,Y
1532843935.9,286047000.3,P
1532843955.7,286047000.4,P
1532843975.6,286047000.4,P
1532843995.4,286047000.6,Y
